Woensdrecht, Netherlands

9:21 AM CEST on October 01, 2016 (GMT +0200)
Woensdrecht Air Base

Weather History for EHWO - January, 2014

Change the Weather History Date:

Friday, January 3, 2014

  Actual Average Record
Temperature  
Mean Temperature 48 °F -  
Max Temperature 55 °F 43 °F 55 °F (2014)
Min Temperature 42 °F 35 °F 14 °F (2009)
Degree Days  
Heating Degree Days 16    
Moisture  
Dew Point 44 °F    
Average Humidity 83    
Maximum Humidity 100    
Minimum Humidity 58    
Precipitation  
Precipitation 0.00 in - - ()
Sea Level Pressure  
Sea Level Pressure 29.54 in    
Wind  
Wind Speed 12 mph ()    
Max Wind Speed 44 mph    
Max Gust Speed 58 mph    
Visibility 6.8 miles    
Events Rain    
Averages and records for this station are not official NWS values.
T = Trace of Precipitation, MM = Missing Value Source: Averaged Metar Reports

Daily Weather History Graph

Daily Weather History Graph

Search for Another Location

Airport or City:

Trip Planner

Search our weather history database for the weather conditions in past years. The results will help you decide how hot, cold, wet, or windy it might be!

Date:

Astronomy

Jan. 03, 2014 Rise Set
Actual Time 8:47 AM CET 4:46 PM CET
Civil Twilight 8:07 AM CET 5:26 PM CET
Nautical Twilight 7:25 AM CET 6:09 PM CET
Astronomical Twilight 6:44 AM CET 6:49 PM CET
Moon 9:43 AM CET (1/3) 7:59 PM CET (1/3)
Length of Visible Light 9h 18m
Length of Day
7h 59m
Waxing Crescent, 6% of the Moon is Illuminated
Jan 3
Waxing Crescent
Jan 8
First Quarter
Jan 16
Full
Jan 24
Last Quarter
Jan 30
New

Hourly Weather History & Observations

Time (CET) Temp. Windchill Dew Point Humidity Pressure Visibility Wind Dir Wind Speed Gust Speed Precip Events Conditions
12:00 AM 48 °F - 42 °F 75% 29.61 in 15 mi South 11.2 mph - -   Overcast
12:25 AM 48.2 °F - 42.8 °F 82% 29.59 in 6.2 mi South 11.5 mph 23.0 mph N/A   Overcast
12:55 AM 46.4 °F 41.9 °F 42.8 °F 87% 29.59 in 6.2 mi South 9.2 mph - N/A   Mostly Cloudy
1:00 AM 47 °F - 42 °F 78% 29.60 in 14 mi South 8.9 mph - -   Partly Cloudy
1:25 AM 46.4 °F 41.5 °F 42.8 °F 87% 29.56 in 6.2 mi South 10.4 mph - N/A   Mostly Cloudy
1:27 AM 46.4 °F 41.9 °F 42.8 °F 87% 29.56 in 6.2 mi South 9.2 mph - N/A   Mostly Cloudy
1:34 AM 46.4 °F 41.9 °F 42.8 °F 87% 29.56 in 6.2 mi South 9.2 mph - N/A   Mostly Cloudy
1:38 AM 46.4 °F 41.9 °F 42.8 °F 87% 29.56 in 6.2 mi South 9.2 mph - N/A   Mostly Cloudy
1:55 AM 46.4 °F 41.5 °F 42.8 °F 87% 29.56 in 6.2 mi South 10.4 mph - N/A   Overcast
2:00 AM 47 °F - 42 °F 79% 29.59 in 16 mi South 8.9 mph - -   Mostly Cloudy
2:14 AM 46.4 °F 41.5 °F 42.8 °F 87% 29.56 in 6.2 mi South 10.4 mph - N/A   Mostly Cloudy
2:25 AM 46.4 °F 41.9 °F 42.8 °F 87% 29.56 in 6.2 mi South 9.2 mph - N/A   Mostly Cloudy
2:37 AM 46.4 °F 41.9 °F 42.8 °F 87% 29.56 in 6.2 mi South 9.2 mph - N/A   Mostly Cloudy
2:44 AM 46.4 °F 41.9 °F 42.8 °F 87% 29.56 in 6.2 mi South 9.2 mph - N/A   Mostly Cloudy
2:55 AM 46.4 °F 41.9 °F 42.8 °F 87% 29.56 in 6.2 mi South 9.2 mph - N/A   Overcast
3:00 AM 48 °F - 44 °F 80% 29.58 in 12 mi South 11.2 mph - -   Overcast
3:03 AM 48.2 °F - 44.6 °F 87% 29.56 in 6.2 mi South 11.5 mph 23.0 mph N/A   Overcast
3:07 AM 48.2 °F - 44.6 °F 87% 29.56 in 6.2 mi South 12.7 mph - N/A   Mostly Cloudy
3:13 AM 48.2 °F - 44.6 °F 87% 29.56 in 6.2 mi South 11.5 mph 23.0 mph N/A   Scattered Clouds
3:17 AM 48.2 °F - 44.6 °F 87% 29.56 in 6.2 mi South 12.7 mph 24.2 mph N/A   Scattered Clouds
3:25 AM 48.2 °F - 44.6 °F 87% 29.56 in 6.2 mi South 12.7 mph 24.2 mph N/A   Mostly Cloudy
3:55 AM 48.2 °F - 44.6 °F 87% 29.53 in 6.2 mi South 11.5 mph - N/A   Overcast
4:00 AM 49 °F - 44 °F 76% 29.56 in 10 mi South 11.2 mph - -   Overcast
4:25 AM 50.0 °F - 44.6 °F 82% 29.53 in 6.2 mi South 10.4 mph - N/A   Overcast
4:48 AM 50.0 °F - 44.6 °F 82% 29.50 in 6.2 mi South 12.7 mph 24.2 mph N/A Rain Drizzle
4:55 AM 50.0 °F - 44.6 °F 82% 29.50 in 6.2 mi South 11.5 mph 24.2 mph N/A Rain Rain
4:59 AM 50.0 °F - 44.6 °F 82% 29.50 in 5.6 mi South 11.5 mph - N/A Rain Rain Showers
5:00 AM 49 °F - 46 °F 83% 29.53 in 5 mi South 11.2 mph - - Rain Rain Showers
5:04 AM 48.2 °F - 46.4 °F 93% 29.50 in 3.7 mi South 12.7 mph - N/A Rain Rain Showers
5:09 AM 48.2 °F - 46.4 °F 93% 29.50 in 5.6 mi South 11.5 mph - N/A Rain Light Rain
5:20 AM 48.2 °F - 46.4 °F 93% 29.50 in 5.6 mi South 10.4 mph - N/A Rain Light Rain
5:25 AM 48.2 °F - 46.4 °F 93% 29.50 in 3.7 mi South 11.5 mph - N/A Rain Light Rain Showers
5:34 AM 48.2 °F - 46.4 °F 93% 29.50 in 6.2 mi South 10.4 mph - N/A Rain Light Rain
5:38 AM 48.2 °F - 46.4 °F 93% 29.50 in 6.2 mi South 10.4 mph - N/A   Mostly Cloudy
5:40 AM 48.2 °F - 46.4 °F 93% 29.50 in 6.2 mi South 10.4 mph - N/A Rain Light Rain
5:46 AM 48.2 °F - 46.4 °F 93% 29.50 in 6.2 mi South 10.4 mph - N/A Rain Light Rain
5:48 AM 48.2 °F - 46.4 °F 93% 29.50 in 6.2 mi South 9.2 mph - N/A Rain Light Rain
5:55 AM 48.2 °F - 46.4 °F 93% 29.50 in 6.2 mi South 10.4 mph - N/A Rain Light Rain
6:00 AM 48 °F - 46 °F 92% 29.51 in 6 mi South 11.2 mph - - Rain Light Rain
6:08 AM 48.2 °F - 46.4 °F 93% 29.50 in 6.2 mi South 9.2 mph - N/A Rain Light Rain
6:12 AM 48.2 °F - 46.4 °F 93% 29.47 in 4.3 mi South 10.4 mph - N/A Rain Light Rain
6:17 AM 48.2 °F - 46.4 °F 93% 29.47 in 4.3 mi South 10.4 mph - N/A Rain Light Rain
6:21 AM 48.2 °F - 46.4 °F 93% 29.47 in 4.3 mi South 11.5 mph - N/A Rain Rain
6:25 AM 48.2 °F - 46.4 °F 93% 29.47 in 4.3 mi South 12.7 mph 26.5 mph N/A   Light Drizzle
6:36 AM 48.2 °F - 46.4 °F 93% 29.47 in 3.7 mi South 12.7 mph - N/A Rain Rain
6:48 AM 48.2 °F - 46.4 °F 93% 29.47 in 4.3 mi South 11.5 mph - N/A   Light Drizzle
6:55 AM 48.2 °F - 46.4 °F 93% 29.47 in 5.0 mi South 11.5 mph - N/A   Light Drizzle
7:00 AM 48 °F - 47 °F 95% 29.49 in 4 mi South 11.2 mph - - Rain Light Drizzle
7:25 AM 48.2 °F - 46.4 °F 93% 29.47 in 6.2 mi South 12.7 mph - N/A   Overcast
7:55 AM 50.0 °F - 46.4 °F 87% 29.47 in 6.2 mi South 11.5 mph - N/A   Mostly Cloudy
7:59 AM 50.0 °F - 46.4 °F 87% 29.47 in 6.2 mi South 12.7 mph 24.2 mph N/A   Overcast
8:00 AM 49 °F - 47 °F 88% 29.49 in 11 mi South 13.4 mph - - Rain Drizzle
8:25 AM 50.0 °F - 46.4 °F 87% 29.47 in 6.2 mi SSW 13.8 mph 26.5 mph N/A   Mostly Cloudy
8:26 AM 50.0 °F - 46.4 °F 87% 29.47 in 6.2 mi South 13.8 mph 26.5 mph N/A   Overcast
8:29 AM 50.0 °F - 46.4 °F 87% 29.47 in 6.2 mi South 13.8 mph 26.5 mph N/A   Overcast
8:33 AM 50.0 °F - 46.4 °F 87% 29.47 in 6.2 mi South 13.8 mph - N/A   Mostly Cloudy
8:45 AM 50.0 °F - 46.4 °F 87% 29.47 in 6.2 mi South 13.8 mph - N/A   Mostly Cloudy
8:49 AM 50.0 °F - 46.4 °F 87% 29.47 in 6.2 mi South 12.7 mph - N/A   Mostly Cloudy
8:55 AM 50.0 °F - 46.4 °F 87% 29.47 in 6.2 mi South 11.5 mph - N/A   Overcast
8:59 AM 50.0 °F - 46.4 °F 87% 29.47 in 6.2 mi South 12.7 mph - N/A   Overcast
9:00 AM 50 °F - 46 °F 82% 29.51 in 12 mi South 11.2 mph - -   Overcast
9:25 AM 50.0 °F - 46.4 °F 87% 29.50 in 6.2 mi South 13.8 mph - N/A   Overcast
9:36 AM 50.0 °F - 46.4 °F 87% 29.50 in 6.2 mi South 11.5 mph 23.0 mph N/A   Overcast
9:55 AM 50.0 °F - 46.4 °F 87% 29.50 in 6.2 mi South 12.7 mph - N/A   Mostly Cloudy
10:00 AM 51 °F - 47 °F 80% 29.52 in 14 mi South 11.2 mph - -   Overcast
10:10 AM 50.0 °F - 46.4 °F 87% 29.50 in 6.2 mi SSW 11.5 mph 23.0 mph N/A   Overcast
10:14 AM 51.8 °F - 46.4 °F 82% 29.50 in 6.2 mi SSW 12.7 mph - N/A   Overcast
10:25 AM 51.8 °F - 46.4 °F 82% 29.50 in 6.2 mi SSW 11.5 mph - N/A   Overcast
10:29 AM 51.8 °F - 46.4 °F 82% 29.50 in 6.2 mi SSW 11.5 mph - N/A   Overcast
10:35 AM 51.8 °F - 46.4 °F 82% 29.50 in 6.2 mi SSW 12.7 mph - N/A   Mostly Cloudy
10:55 AM 51.8 °F - 46.4 °F 82% 29.50 in 6.2 mi SSW 13.8 mph 25.3 mph N/A   Overcast
11:00 AM 52 °F - 47 °F 77%  in 13 mi SSW 13.4 mph - -   Partly Cloudy
11:25 AM 53.6 °F - 46.4 °F 77% 29.50 in 6.2 mi SSW 13.8 mph 25.3 mph N/A   Mostly Cloudy
11:27 AM 53.6 °F - 46.4 °F 77% 29.50 in 6.2 mi SSW 13.8 mph - N/A   Scattered Clouds
11:47 AM 53.6 °F - 46.4 °F 77% 29.53 in 6.2 mi SSW 13.8 mph - N/A   Mostly Cloudy
11:55 AM 53.6 °F - 46.4 °F 77% 29.53 in 6.2 mi SSW 13.8 mph - N/A   Mostly Cloudy
12:00 PM 53 °F - 46 °F 71% 29.54 in 11 mi SSW 13.4 mph - -   Overcast
12:25 PM 53.6 °F - 46.4 °F 77% 29.50 in 6.2 mi SSW 13.8 mph 26.5 mph N/A   Overcast
12:55 PM 55.4 °F - 46.4 °F 72% 29.50 in 6.2 mi SW 18.4 mph 32.2 mph N/A   Mostly Cloudy
1:00 PM 54 °F - 46 °F 67% 29.53 in 10 mi SW 20.1 mph - -   Partly Cloudy
1:25 PM 53.6 °F - 46.4 °F 77% 29.50 in 6.2 mi SW 17.3 mph 28.8 mph N/A   Mostly Cloudy
1:55 PM 53.6 °F - 46.4 °F 77% 29.50 in 6.2 mi SW 15.0 mph - N/A   Mostly Cloudy
2:00 PM 54 °F - 46 °F 67%  in 9 mi SW 13.4 mph - -   Scattered Clouds
2:25 PM 55.4 °F - 46.4 °F 72% 29.50 in 6.2 mi SW 11.5 mph - N/A   Overcast
2:55 PM 55.4 °F - 44.6 °F 67% 29.50 in 6.2 mi SSW 11.5 mph 23.0 mph N/A   Mostly Cloudy
3:00 PM 55 °F - 45 °F 61% 29.53 in 9 mi SSW 13.4 mph - -   Overcast
3:25 PM 53.6 °F - 46.4 °F 77% 29.50 in 6.2 mi SSW 12.7 mph - N/A   Mostly Cloudy
3:55 PM 53.6 °F - 46.4 °F 77% 29.50 in 6.2 mi SSW 13.8 mph 28.8 mph N/A   Mostly Cloudy
4:00 PM 54 °F - 45 °F 64% 29.51 in 8 mi SSW 11.2 mph - -   Scattered Clouds
4:25 PM 51.8 °F - 46.4 °F 82% 29.50 in 5.6 mi SSW 13.8 mph 25.3 mph N/A Rain Light Rain
4:29 PM 50.0 °F - 44.6 °F 82% 29.50 in 4.3 mi SSW 15.0 mph - N/A Rain Rain Showers
4:41 PM 46.4 °F 37.2 °F 44.6 °F 93% 29.50 in - SW 29.9 mph 42.6 mph N/A Rain Heavy Rain Showers
4:46 PM 44.6 °F 35.5 °F 42.8 °F 93% 29.50 in - SW 25.3 mph 42.6 mph N/A Rain Heavy Rain Showers
4:50 PM 44.6 °F 35.9 °F 42.8 °F 93% 29.53 in 3.7 mi SW 23.0 mph 42.6 mph N/A   Mostly Cloudy
4:55 PM 42.8 °F 30.4 °F 41.0 °F 93% 29.53 in - WSW 43.7 mph 57.5 mph N/A Rain Heavy Rain Showers
4:59 PM 42.8 °F 30.8 °F 41.0 °F 93% 29.53 in 1.3 mi WSW 40.3 mph 57.5 mph N/A Rain Rain Showers
5:00 PM 43 °F - 42 °F 93% 29.57 in 1 mi WSW 38.0 mph - - Rain Rain Showers
5:06 PM 42.8 °F 31.8 °F 42.8 °F 100% 29.56 in 2.5 mi WSW 33.4 mph 47.2 mph N/A Rain Rain Showers
5:10 PM 42.8 °F 32.7 °F 41.0 °F 93% 29.56 in 3.1 mi WSW 27.6 mph 41.4 mph N/A Rain Rain
5:11 PM 44.6 °F 35.7 °F 41.0 °F 87% 29.56 in 6.2 mi WSW 24.2 mph 39.1 mph N/A Rain Rain Showers
5:25 PM 44.6 °F 38.1 °F 41.0 °F 87% 29.53 in 6.2 mi SW 13.8 mph - N/A   Mostly Cloudy
5:55 PM 44.6 °F 38.8 °F 39.2 °F 81% 29.53 in 6.2 mi SSW 11.5 mph - N/A   Overcast
6:00 PM 45 °F - 39 °F 74% 29.55 in 28 mi SW 13.4 mph - - Rain Rain
6:25 PM 46.4 °F 40.1 °F 39.2 °F 76% 29.53 in 6.2 mi SW 15.0 mph - N/A   Overcast
6:55 PM 46.4 °F 40.1 °F 37.4 °F 71% 29.56 in 6.2 mi SW 15.0 mph - N/A   Overcast
7:00 PM 47 °F - 38 °F 63% 29.57 in 25 mi SW 15.7 mph - -   Partly Cloudy
7:25 PM 46.4 °F 40.1 °F 37.4 °F 71% 29.56 in 6.2 mi SW 15.0 mph - N/A   Overcast
7:55 PM 46.4 °F 40.4 °F 39.2 °F 76% 29.56 in 6.2 mi SSW 13.8 mph - N/A   Overcast
8:00 PM 47 °F - 39 °F 67% 29.59 in 25 mi SW 15.7 mph - -   Overcast
8:25 PM 48.2 °F - 39.2 °F 71% 29.59 in 6.2 mi SW 19.6 mph 32.2 mph N/A   Mostly Cloudy
8:55 PM 48.2 °F - 37.4 °F 66% 29.59 in 6.2 mi SW 24.2 mph 36.8 mph N/A   Mostly Cloudy
9:00 PM 47 °F - 37 °F 58% 29.63 in 19 mi SW 22.4 mph - -   Overcast
9:21 PM 42.8 °F 33.3 °F 39.2 °F 87% 29.62 in 6.2 mi WSW 24.2 mph - N/A Rain Heavy Drizzle
9:25 PM 42.8 °F 33.5 °F 39.2 °F 87% 29.62 in 5.6 mi West 23.0 mph - N/A Rain Light Rain Showers
9:26 PM 42.8 °F 34.3 °F 39.2 °F 87% 29.62 in 6.2 mi WSW 19.6 mph 31.1 mph N/A Rain Light Rain
9:55 PM 46.4 °F 39.2 °F 39.2 °F 76% 29.65 in 6.2 mi SW 18.4 mph - N/A   Mostly Cloudy
10:00 PM 46 °F - 38 °F 66% 29.65 in 19 mi SW 17.9 mph - - Rain Rain
10:25 PM 46.4 °F 38.7 °F 39.2 °F 76% 29.65 in 6.2 mi SW 20.7 mph - N/A   Mostly Cloudy
10:55 PM 44.6 °F 36.9 °F 39.2 °F 81% 29.65 in 6.2 mi SW 18.4 mph - N/A   Overcast
11:00 PM 45 °F - 39 °F 72% 29.68 in 19 mi SW 15.7 mph - -   Partly Cloudy
11:25 PM 46.4 °F 40.1 °F 39.2 °F 76% 29.68 in 6.2 mi SW 15.0 mph - N/A   Mostly Cloudy
11:30 PM 44.6 °F 38.1 °F 41.0 °F 87% 29.68 in 6.2 mi SW 13.8 mph 26.5 mph N/A Rain Light Rain Showers
11:43 PM 44.6 °F 38.4 °F 41.0 °F 87% 29.68 in 6.2 mi SW 12.7 mph - N/A Rain Rain Showers
11:50 PM 44.6 °F 39.2 °F 41.0 °F 87% 29.68 in 6.2 mi SW 10.4 mph - N/A Rain Light Rain
11:55 PM 44.6 °F 38.8 °F 41.0 °F 87% 29.68 in 6.2 mi SW 11.5 mph - N/A Rain Rain
11:59 PM 44.6 °F 38.8 °F 41.0 °F 87% 29.68 in 6.2 mi WSW 11.5 mph - N/A Rain Rain